| time (UTC) | temp F | wind direction | speed knots | gust knots | rain 1hr in | rain 24hr in | rain mn in | humidity % | barometer mb |
| 20260905183012 | 0 | 90 | 0.0 | 0.9 | 0.00 | 0.05 | 0.05 | 1018.3 | |
| 20260905182215 | 0 | 90 | 0.9 | 1.7 | 0.00 | 0.05 | 0.05 | 1018.1 | |
| 20260905181418 | 0 | 90 | 0.0 | 0.9 | 0.00 | 0.05 | 0.05 | 1018.0 | |
| 20260905180619 | 0 | 90 | 0.0 | 0.9 | 0.00 | 0.05 | 0.05 | 1017.9 | |
| 20260905175820 | 0 | 135 | 0.0 | 1.7 | 0.00 | 0.05 | 0.05 | 1017.6 | |
| 20260905175022 | 0 | 225 | 0.0 | 1.7 | 0.00 | 0.05 | 0.05 | 1017.5 | |
| 20260905174227 | 0 | 45 | 0.0 | 0.9 | 0.00 | 0.05 | 0.05 | 1017.4 | |
| 20260905173428 | 0 | 90 | 0.0 | 1.7 | 0.00 | 0.05 | 0.05 | 1017.2 | |
| 20260905172624 | 0 | 90 | 0.9 | 1.7 | 0.00 | 0.05 | 0.05 | 1017.0 | |
| 20260905171811 | 0 | 90 | 0.9 | 1.7 | 0.00 | 0.05 | 0.05 | 1016.9 | |
| 20260905171001 | 0 | 90 | 0.9 | 3.5 | 0.00 | 0.05 | 0.05 | 1016.7 | |
| 20260905170200 | 0 | 45 | 0.9 | 2.6 | 0.00 | 0.05 | 0.05 | 1016.5 | |
| 20260905165401 | 0 | 270 | 1.7 | 3.5 | 0.00 | 0.05 | 0.05 | 1016.3 | |
| 20260905164602 | 0 | 225 | 1.7 | 4.3 | 0.00 | 0.05 | 0.05 | 1016.1 | |
| 20260905163801 | 0 | 293 | 3.5 | 5.2 | 0.00 | 0.05 | 0.05 | 1016.1 | |
| 20260905163001 | 0 | 45 | 0.0 | 3.5 | 0.00 | 0.05 | 0.05 | 1016.0 | |
| 20260905162204 | 0 | 315 | 0.9 | 2.6 | 0.00 | 0.05 | 0.05 | 1016.0 | |
| 20260905161404 | 0 | 338 | 2.6 | 5.2 | 0.00 | 0.05 | 0.05 | 1015.8 | |
| 20260905160604 | 0 | 270 | 2.6 | 6.1 | 0.00 | 0.05 | 0.05 | 1015.5 | |
| 20260905155804 | 0 | 270 | 0.0 | 7.8 | 0.00 | 0.05 | 0.05 | 1015.4 | |
| 20260905155004 | 0 | 270 | 1.7 | 5.2 | 0.00 | 0.05 | 0.05 | 1015.1 | |
| 20260905154200 | 0 | 90 | 1.7 | 10.4 | 0.00 | 0.05 | 0.05 | 1015.0 | |
| 20260905153347 | 0 | 315 | 2.6 | 7.0 | 0.00 | 0.05 | 0.05 | 1015.2 | |
| 20260905152541 | 0 | 315 | 2.6 | 8.7 | 0.00 | 0.05 | 0.05 | 1015.3 | |
| 20260905151743 | 0 | 225 | 4.3 | 7.8 | 0.00 | 0.05 | 0.05 | 1015.4 | |
| 20260905150943 | 0 | 225 | 3.5 | 12.2 | 0.00 | 0.05 | 0.05 | 1015.1 | |
| 20260905150145 | 0 | 225 | 3.5 | 12.2 | 0.00 | 0.05 | 0.05 | 1015.0 | |
| 20260905145348 | 0 | 135 | 4.3 | 15.6 | 0.00 | 0.05 | 0.05 | 1014.9 | |
| 20260905144551 | 0 | 315 | 7.0 | 10.4 | 0.00 | 0.05 | 0.05 | 1014.7 | |
| 20260905143756 | 0 | 225 | 1.7 | 12.2 | 0.00 | 0.05 | 0.05 | 1014.8 | |
| 20260905142957 | 0 | 225 | 2.6 | 15.6 | 0.00 | 0.05 | 0.05 | 1014.7 | |
| 20260905142159 | 0 | 45 | 5.2 | 14.8 | 0.00 | 0.05 | 0.05 | 1014.9 | |
| 20260905141403 | 0 | 90 | 0.9 | 5.2 | 0.00 | 0.05 | 0.05 | 1014.8 | |
| 20260905140605 | 0 | 225 | 6.1 | 10.4 | 0.00 | 0.05 | 0.05 | 1015.0 | |
| 20260905135810 | 0 | 270 | 2.6 | 13.0 | 0.00 | 0.05 | 0.05 | 1015.0 | |
| 20260905135014 | 0 | 270 | 2.6 | 11.3 | 0.00 | 0.05 | 0.05 | 1014.9 | |
| 20260905134216 | 0 | 225 | 0.9 | 5.2 | 0.00 | 0.05 | 0.05 | 1015.0 | |
| 20260905133420 | 0 | 45 | 1.7 | 2.6 | 0.00 | 0.05 | 0.05 | 1015.5 | |
| 20260905132621 | 0 | 270 | 4.3 | 7.0 | 0.00 | 0.05 | 0.05 | 1015.5 | |
| 20260905131823 | 0 | 225 | 4.3 | 5.2 | 0.00 | 0.05 | 0.05 | 1015.6 | |
| 20260905131026 | 0 | 90 | 0.9 | 8.7 | 0.00 | 0.05 | 0.05 | 1015.5 | |
| 20260905130229 | 0 | 225 | 0.9 | 6.1 | 0.00 | 0.05 | 0.05 | 1015.7 | |
| 20260905125431 | 0 | 270 | 7.0 | 7.8 | 0.00 | 0.05 | 0.05 | 1015.6 | |
| 20260905124632 | 0 | 135 | 0.9 | 7.0 | 0.00 | 0.05 | 0.05 | 1015.6 | |
| 20260905123834 | 0 | 45 | 1.7 | 8.7 | 0.00 | 0.05 | 0.05 | 1015.5 | |
| 20260905123036 | 0 | 45 | 3.5 | 9.6 | 0.00 | 0.05 | 0.05 | 1015.7 | |
| 20260905122239 | 0 | 270 | 2.6 | 10.4 | 0.00 | 0.05 | 0.05 | 1015.6 | |
| 20260905121442 | 0 | 270 | 4.3 | 9.6 | 0.00 | 0.05 | 0.05 | 1015.5 | |
| 20260905120640 | 0 | 270 | 4.3 | 10.4 | 0.00 | 0.05 | 0.05 | 1015.4 | |
| 20260905115843 | 0 | 270 | 2.6 | 8.7 | 0.00 | 0.05 | 0.05 | 1015.3 | |
| 20260905115043 | 0 | 225 | 0.9 | 7.0 | 0.00 | 0.05 | 0.05 | 1015.4 | |
| 20260905114245 | 0 | 270 | 3.5 | 13.0 | 0.00 | 0.05 | 0.05 | 1015.7 | |
| 20260905113446 | 0 | 270 | 2.6 | 11.3 | 0.00 | 0.05 | 0.05 | 1015.6 | |
| 20260905112648 | 0 | 270 | 3.5 | 9.6 | 0.00 | 0.05 | 0.05 | 1015.6 | |
| 20260905111854 | 0 | 270 | 4.3 | 7.8 | 0.00 | 0.05 | 0.05 | 1015.7 | |
| 20260905111056 | 0 | 135 | 1.7 | 7.8 | 0.00 | 0.05 | 0.05 | 1016.0 | |
| 20260905110258 | 0 | 45 | 0.9 | 9.6 | 0.00 | 0.05 | 0.05 | 1015.7 | |
| 20260905105501 | 0 | 270 | 9.6 | 14.8 | 0.00 | 0.05 | 0.05 | 1015.8 | |
| 20260905104701 | 0 | 270 | 5.2 | 10.4 | 0.00 | 0.05 | 0.05 | 1016.0 | |
| 20260905103904 | 0 | 203 | 1.7 | 9.6 | 0.00 | 0.05 | 0.05 | 1015.7 | |
| 20260905103103 | 0 | 315 | 4.3 | 8.7 | 0.00 | 0.05 | 0.05 | 1015.9 | |
| 20260905102306 | 0 | 270 | 3.5 | 9.6 | 0.00 | 0.05 | 0.05 | 1015.9 | |
| 20260905101506 | 0 | 270 | 4.3 | 11.3 | 0.00 | 0.05 | 0.05 | 1016.0 | |
| 20260905100707 | 0 | 225 | 3.5 | 7.0 | 0.00 | 0.05 | 0.05 | 1016.1 | |
| 20260905095908 | 0 | 135 | 5.2 | 7.0 | 0.00 | 0.05 | 0.05 | 1016.5 | |
| 20260905095108 | 0 | 270 | 1.7 | 5.2 | 0.00 | 0.05 | 0.05 | 1016.6 | |
| 20260905094312 | 0 | 248 | 0.9 | 5.2 | 0.00 | 0.05 | 0.05 | 1016.5 | |
| 20260905093511 | 0 | 135 | 0.9 | 4.3 | 0.00 | 0.05 | 0.05 | 1016.6 | |
| 20260905092713 | 0 | 45 | 1.7 | 3.5 | 0.00 | 0.05 | 0.05 | 1016.6 | |
| 20260905091915 | 0 | 315 | 1.7 | 5.2 | 0.00 | 0.05 | 0.05 | 1016.2 | |
| 20260905091116 | 0 | 270 | 0.9 | 5.2 | 0.00 | 0.05 | 0.05 | 1016.5 | |
| 20260905090319 | 0 | 270 | 4.3 | 7.0 | 0.00 | 0.05 | 0.05 | 1016.7 | |
| 20260905085521 | 0 | 225 | 0.9 | 9.6 | 0.00 | 0.05 | 0.05 | 1016.4 | |
| 20260905084723 | 0 | 0 | 3.5 | 7.8 | 0.00 | 0.05 | 0.05 | 1016.5 | |
| 20260905083920 | 0 | 315 | 3.5 | 11.3 | 0.00 | 0.05 | 0.05 | 1016.3 | |
| 20260905083122 | 0 | 315 | 4.3 | 7.8 | 0.00 | 0.05 | 0.05 | 1016.1 | |
| 20260905082323 | 0 | 135 | 1.7 | 7.8 | 0.00 | 0.05 | 0.05 | 1016.3 | |
| 20260905081522 | 0 | 315 | 1.7 | 3.5 | 0.00 | 0.05 | 0.05 | 1015.6 | |
| 20260905080726 | 0 | 135 | 0.0 | 2.6 | 0.00 | 0.05 | 0.05 | 1016.1 | |
| 20260905075926 | 0 | 315 | 2.6 | 5.2 | 0.00 | 0.05 | 0.05 | 1016.8 | |
| 20260905075128 | 0 | 270 | 1.7 | 4.3 | 0.00 | 0.05 | 0.05 | 1016.4 | |
| 20260905074329 | 0 | 248 | 0.9 | 2.6 | 0.00 | 0.05 | 0.05 | 1016.5 | |
| 20260905073529 | 0 | 0 | 0.9 | 4.3 | 0.00 | 0.05 | 0.05 | 1016.6 | |
| 20260905072730 | 0 | 90 | 3.5 | 4.3 | 0.00 | 0.05 | 0.05 | 1016.4 | |
| 20260905071930 | 0 | 293 | 0.9 | 3.5 | 0.00 | 0.05 | 0.05 | 1016.5 | |
| 20260905071129 | 0 | 135 | 0.9 | 3.5 | 0.00 | 0.05 | 0.05 | 1016.6 | |
| 20260905070329 | 0 | 315 | 0.9 | 5.2 | 0.00 | 0.05 | 0.05 | 1016.7 | |
| 20260905065530 | 0 | 293 | 1.7 | 4.3 | 0.00 | 0.05 | 0.05 | 1016.7 | |
| 20260905064732 | 0 | 0 | 4.3 | 6.1 | 0.00 | 0.05 | 0.05 | 1016.6 | |
| 20260905063930 | 0 | 293 | 3.5 | 5.2 | 0.00 | 0.05 | 0.05 | 1017.0 | |
| 20260905063134 | 0 | 315 | 1.7 | 2.6 | 0.00 | 0.05 | 0.05 | 1017.1 | |
| 20260905062331 | 0 | 0 | 0.0 | 3.5 | 0.00 | 0.05 | 0.05 | 1016.8 | |
| 20260905061530 | 0 | 225 | 0.0 | 1.7 | 0.00 | 0.05 | 0.05 | 1016.5 | |
| 20260905060733 | 0 | 45 | 1.7 | 2.6 | 0.00 | 0.05 | 0.05 | 1016.7 | |
| 20260905055936 | 0 | 225 | 1.7 | 4.3 | 0.03 | 0.05 | 0.05 | 1016.7 | |
| 20260905055141 | 0 | 270 | 2.6 | 7.0 | 0.03 | 0.05 | 0.05 | 1015.8 | |
| 20260905054342 | 0 | 338 | 2.6 | 5.2 | 0.03 | 0.05 | 0.05 | 1016.0 | |
| 20260905053543 | 0 | 270 | 3.5 | 7.0 | 0.02 | 0.04 | 0.04 | 1016.6 | |
| 20260905052743 | 0 | 270 | 0.0 | 1.7 | 0.02 | 0.04 | 0.04 | 1016.1 | |
| 20260905051948 | 0 | 270 | 0.9 | 3.5 | 0.02 | 0.04 | 0.04 | 1016.1 | |
| 20260905051146 | 0 | 68 | 0.9 | 1.7 | 0.01 | 0.03 | 0.03 | 1015.9 | |
| 20260905050347 | 0 | 68 | 0.0 | 3.5 | 0.01 | 0.03 | 0.03 | 1016.2 | |
| 20260905045551 | 0 | 135 | 1.7 | 1.7 | 0.00 | 0.02 | 0.02 | 1015.9 | |
| 20260905044750 | 0 | 270 | 0.9 | 1.7 | 0.00 | 0.02 | 0.02 | 1015.5 | |
| 20260905043954 | 0 | 315 | 0.9 | 3.5 | 0.00 | 0.02 | 0.02 | 1015.3 | |
| 20260905043156 | 0 | 225 | 0.0 | 0.9 | 0.00 | 0.02 | 0.02 | 1015.3 | |
| 20260905042357 | 0 | 315 | 0.0 | 1.7 | 0.00 | 0.02 | 0.02 | 1015.0 | |
| 20260905041559 | 0 | 270 | 1.7 | 1.7 | 0.00 | 0.02 | 0.02 | 1015.0 | |
| 20260905040802 | 0 | 270 | 0.0 | 0.9 | 0.00 | 0.02 | 0.02 | 1014.4 | |
| 20260905040003 | 0 | 270 | 0.0 | 2.6 | 0.02 | 0.02 | 0.02 | 1014.6 | |
| 20260905035204 | 0 | 270 | 0.9 | 0.9 | 0.02 | 0.02 | 0.02 | 1014.4 | |
| 20260905034407 | 0 | 315 | 0.9 | 0.9 | 0.02 | 0.02 | 0.02 | 1015.1 | |
| 20260905033612 | 0 | 270 | 0.0 | 0.0 | 0.02 | 0.02 | 0.02 | 1013.9 | |
| 20260905032810 | 0 | 270 | 0.0 | 0.9 | 0.02 | 0.02 | 0.02 | 1014.0 | |
| 20260905032011 | 0 | 225 | 0.0 | 1.7 | 0.02 | 0.02 | 0.02 | 1014.0 | |
| 20260905031212 | 0 | 270 | 0.0 | 2.6 | 0.01 | 0.01 | 0.01 | 1014.2 | |
| 20260905030413 | 0 | 90 | 0.9 | 4.3 | 0.00 | 0.00 | 0.00 | 1014.4 | |
| 20260905025614 | 0 | 0 | 1.7 | 3.5 | 0.00 | 0.00 | 0.00 | 1013.8 | |
| 20260905024817 | 0 | 90 | 0.9 | 1.7 | 0.00 | 0.00 | 0.00 | 1013.7 | |
| 20260905024015 | 0 | 90 | 0.9 | 1.7 | 0.00 | 0.00 | 0.00 | 1013.5 | |
| 20260905023215 | 0 | 90 | 0.0 | 0.9 | 0.00 | 0.00 | 0.00 | 1013.8 | |
| 20260905022416 | 0 | 315 | 0.0 | 2.6 | 0.00 | 0.00 | 0.00 | 1013.3 | |
| 20260905021616 | 0 | 180 | 0.9 | 2.6 | 0.00 | 0.00 | 0.00 | 1013.3 | |
| 20260905020816 | 0 | 135 | 0.9 | 3.5 | 0.00 | 0.00 | 0.00 | 1013.1 | |
| 20260905020014 | 0 | 0 | 0.9 | 2.6 | 0.00 | 0.00 | 0.00 | 1012.4 | |
| 20260905015216 | 0 | 45 | 1.7 | 3.5 | 0.00 | 0.00 | 0.00 | 1012.6 | |
| 20260905014416 | 0 | 315 | 0.9 | 7.0 | 0.00 | 0.00 | 0.00 | 1012.5 | |
| 20260905013618 | 0 | 90 | 2.6 | 6.1 | 0.00 | 0.00 | 0.00 | 1012.6 | |
| 20260905012818 | 0 | 90 | 0.9 | 3.5 | 0.00 | 0.00 | 0.00 | 1012.6 | |
| 20260905012010 | 0 | 90 | 2.6 | 7.0 | 0.00 | 0.00 | 0.00 | 1012.6 | |
| 20260905011209 | 0 | 45 | 0.0 | 6.1 | 0.00 | 0.00 | 0.00 | 1012.5 | |
| 20260905010412 | 0 | 315 | 0.9 | 5.2 | 0.00 | 0.00 | 0.00 | 1012.3 | |
| 20260905005615 | 0 | 270 | 1.7 | 6.1 | 0.00 | 0.00 | 0.00 | 1012.5 | |
| 20260905004818 | 0 | 315 | 3.5 | 5.2 | 0.00 | 0.00 | 0.00 | 1012.1 | |
| 20260905004018 | 0 | 45 | 2.6 | 4.3 | 0.00 | 0.00 | 0.00 | 1012.1 | |
| 20260905003218 | 0 | 45 | 1.7 | 7.0 | 0.00 | 0.00 | 0.00 | 1011.7 | |
| 20260905002418 | 0 | 45 | 2.6 | 5.2 | 0.00 | 0.00 | 0.00 | 1011.6 | |
| 20260905001619 | 0 | 45 | 1.7 | 13.0 | 0.00 | 0.00 | 0.00 | 1011.4 | |
| 20260905000823 | 0 | 135 | 2.6 | 7.0 | 0.00 | 0.00 | 0.00 | 1010.9 | |
| 20260905000025 | 0 | 135 | 2.6 | 6.1 | 0.00 | 0.00 | 0.00 | 1010.6 | |
| 20260904235227 | 0 | 45 | 2.6 | 6.1 | 0.00 | 0.00 | 0.00 | 1010.4 | |
| 20260904234425 | 0 | 90 | 0.0 | 0.9 | 0.00 | 0.00 | 0.00 | 1010.0 | |
| 20260904233625 | 0 | 90 | 0.0 | 0.0 | 0.00 | 0.00 | 0.00 | 1009.8 | |
| 20260904232828 | 0 | 68 | 0.0 | 0.9 | 0.00 | 0.00 | 0.00 | 1009.8 | |
| 20260904232029 | 0 | 90 | 0.0 | 0.9 | 0.00 | 0.00 | 0.00 | 1009.8 | |
| 20260904231230 | 0 | 90 | 0.0 | 0.0 | 0.00 | 0.00 | 0.00 | 1009.8 | |
| 20260904230431 | 0 | 90 | 0.0 | 0.9 | 0.00 | 0.00 | 0.00 | 1009.9 | |
| 20260904225636 | 0 | 90 | 0.0 | 0.9 | 0.00 | 0.00 | 0.00 | 1009.8 | |
| 20260904224838 | 0 | 90 | 0.0 | 0.0 | 0.00 | 0.00 | 0.00 | 1009.8 | |
| 20260904224037 | 0 | 90 | 0.0 | 0.0 | 0.00 | 0.00 | 0.00 | 1009.8 | |
| 20260904223240 | 0 | 90 | 0.0 | 0.0 | 0.00 | 0.00 | 0.00 | 1009.8 | |
| 20260904222440 | 0 | 135 | 0.0 | 0.0 | 0.00 | 0.00 | 0.00 | 1009.8 | |
| 20260904221639 | 0 | 203 | 0.0 | 0.0 | 0.00 | 0.00 | 0.00 | 1009.7 | |
| 20260904220842 | 0 | 203 | 0.0 | 0.0 | 0.00 | 0.00 | 0.00 | 1009.7 | |
| 20260904220045 | 0 | 203 | 0.0 | 0.0 | 0.00 | 0.00 | 0.00 | 1009.5 | |
| 20260904215246 | 0 | 225 | 0.0 | 0.9 | 0.00 | 0.00 | 0.00 | 1009.4 | |
| 20260904214448 | 0 | 0 | 0.0 | 1.7 | 0.00 | 0.00 | 0.00 | 1009.3 | |
| 20260904213648 | 0 | 0 | 0.0 | 2.6 | 0.00 | 0.00 | 0.00 | 1009.5 | |
| 20260904212850 | 0 | 180 | 0.0 | 0.9 | 0.00 | 0.00 | 0.00 | 1009.5 | |
| 20260904212049 | 0 | 225 | 0.0 | 0.9 | 0.00 | 0.00 | 0.00 | 1009.6 | |
| 20260904211251 | 0 | 270 | 0.9 | 0.9 | 0.00 | 0.00 | 0.00 | 1009.5 | |
| 20260904210454 | 0 | 90 | 0.0 | 0.9 | 0.00 | 0.00 | 0.00 | 1009.5 | |
| 20260904205653 | 0 | 90 | 0.0 | 0.9 | 0.00 | 0.00 | 0.00 | 1009.4 | |
| 20260904204849 | 0 | 315 | 0.0 | 0.9 | 0.00 | 0.00 | 0.00 | 1009.3 | |
| 20260904204045 | 0 | 135 | 0.0 | 0.0 | 0.00 | 0.00 | 0.00 | 1009.4 | |
| 20260904203246 | 0 | 45 | 0.0 | 0.9 | 0.00 | 0.00 | 0.00 | 1009.4 | |
| 20260904202444 | 0 | 270 | 0.0 | 1.7 | 0.00 | 0.00 | 0.00 | 1009.4 | |
| 20260904201646 | 0 | 45 | 0.0 | 0.9 | 0.00 | 0.00 | 0.00 | 1009.5 | |
| 20260904200849 | 0 | 90 | 0.0 | 0.9 | 0.00 | 0.00 | 0.00 | 1009.5 | |
| 20260904200051 | 0 | 90 | 0.0 | 0.9 | 0.00 | 0.00 | 0.00 | 1009.5 | |
| 20260904195253 | 0 | 90 | 0.0 | 0.0 | 0.00 | 0.00 | 0.00 | 1009.5 | |
| 20260904194453 | 0 | 45 | 0.0 | 0.0 | 0.00 | 0.00 | 0.00 | 1009.4 | |
| 20260904193653 | 0 | 45 | 0.0 | 1.7 | 0.00 | 0.00 | 0.00 | 1009.4 | |
| 20260904192855 | 0 | 315 | 0.0 | 0.9 | 0.00 | 0.00 | 0.00 | 1009.4 | |
| 20260904192057 | 0 | 293 | 0.0 | 0.0 | 0.00 | 0.00 | 0.00 | 1009.7 | |
| 20260904191257 | 0 | 315 | 0.0 | 0.0 | 0.00 | 0.00 | 0.00 | 1009.7 | |
| 20260904190459 | 0 | 270 | 0.0 | 2.6 | 0.00 | 0.00 | 0.00 | 1009.6 | |
| 20260904185659 | 0 | 270 | 0.0 | 0.0 | 0.00 | 0.00 | 0.00 | 1009.6 | |
| 20260904184855 | 0 | 135 | 0.0 | 0.0 | 0.00 | 0.00 | 0.00 | 1009.5 | |
| 20260904184041 | 0 | 135 | 0.0 | 0.9 | 0.00 | 0.00 | 0.00 | 1009.4 |